• Em Portugal
  • Lista de países
  • Para 7 dias
  • Temperatura da água
  • Mapas de satélite
  • Mapa do tempo
  • Widgets de tempo
  • user-avatar
    Iniciar Sessão

    Previsão horária em Slobozia

    Hoje, 11 Dezembro, Segunda-feira

    Tempo Temperatura Precipitação Vento Pressão Humidade
    00:00 -3°C° 0 mm 4 m/s 760 mmHg 82%
    01:00 -3°C° 0 mm 4 m/s 760 mmHg 82%
    02:00 -2°C° 0 mm 3 m/s 761 mmHg 81%
    03:00 -2°C° 0 mm 4 m/s 761 mmHg 79%
    04:00 -2°C° 0 mm 4 m/s 761 mmHg 78%
    05:00 -1°C° 0 mm 5 m/s 761 mmHg 76%
    06:00 -2°C° 0 mm 6 m/s 761 mmHg 73%
    07:00 -2°C° 0 mm 6 m/s 761 mmHg 71%
    08:00 -2°C° 0 mm 7 m/s 760 mmHg 69%
    09:00 -1°C° 0 mm 7 m/s 761 mmHg 64%
    10:00 0°C° 0 mm 7 m/s 761 mmHg 59%
    11:00 +1°C° 0 mm 8 m/s 761 mmHg 54%
    12:00 +3°C° 0 mm 7 m/s 761 mmHg 53%
    13:00 +4°C° 0 mm 7 m/s 761 mmHg 53%
    14:00 +5°C° 0 mm 6 m/s 760 mmHg 52%
    15:00 +4°C° 0 mm 6 m/s 761 mmHg 53%
    16:00 +4°C° 0 mm 6 m/s 761 mmHg 55%
    17:00 +3°C° 0 mm 5 m/s 761 mmHg 56%
    18:00 +3°C° 0 mm 5 m/s 761 mmHg 58%
    19:00 +3°C° 0 mm 5 m/s 761 mmHg 59%
    20:00 +2°C° 0 mm 5 m/s 761 mmHg 60%
    21:00 +3°C° 0 mm 4 m/s 761 mmHg 61%
    22:00 +3°C° 0 mm 4 m/s 761 mmHg 62%
    23:00 +3°C° 0 mm 4 m/s 761 mmHg 63%

    Amanhã, 12 Dezembro, Terça-feira

    Tempo Temperatura Precipitação Vento Pressão Humidade
    00:00 +3°C° 0 mm 4 m/s 761 mmHg 64%
    01:00 +1°C° 0 mm 4 m/s 761 mmHg 65%
    02:00 +1°C° 0 mm 4 m/s 761 mmHg 66%
    03:00 +1°C° 0 mm 4 m/s 761 mmHg 66%
    04:00 +1°C° 0 mm 4 m/s 761 mmHg 67%
    05:00 +1°C° 0 mm 4 m/s 761 mmHg 68%
    06:00 +1°C° 0 mm 4 m/s 761 mmHg 68%
    07:00 +1°C° 0 mm 4 m/s 761 mmHg 68%
    08:00 +1°C° 0 mm 4 m/s 762 mmHg 69%
    09:00 +4°C° 0 mm 4 m/s 762 mmHg 65%
    10:00 +5°C° 0 mm 4 m/s 762 mmHg 62%
    11:00 +7°C° 0 mm 5 m/s 762 mmHg 58%
    12:00 +7°C° 0 mm 5 m/s 762 mmHg 57%
    13:00 +8°C° 0 mm 4 m/s 762 mmHg 56%
    14:00 +10°C° 0 mm 4 m/s 762 mmHg 56%
    15:00 +8°C° 0 mm 4 m/s 762 mmHg 59%
    16:00 +8°C° 0 mm 3 m/s 762 mmHg 63%
    17:00 +7°C° 0 mm 3 m/s 762 mmHg 66%
    18:00 +7°C° 0 mm 3 m/s 762 mmHg 68%
    19:00 +5°C° 0 mm 3 m/s 762 mmHg 69%
    20:00 +5°C° 0 mm 3 m/s 763 mmHg 70%
    21:00 +5°C° 0 mm 3 m/s 763 mmHg 72%
    22:00 +5°C° 0 mm 3 m/s 763 mmHg 73%
    23:00 +4°C° 0 mm 3 m/s 763 mmHg 74%

    Depois de amanhã, 13 Dezembro, Quarta-feira

    Tempo Temperatura Precipitação Vento Pressão Humidade
    00:00 +4°C° 0 mm 3 m/s 763 mmHg 75%
    01:00 +4°C° 0 mm 3 m/s 763 mmHg 76%
    02:00 +4°C° 0 mm 3 m/s 763 mmHg 77%
    03:00 +5°C° 0 mm 2 m/s 763 mmHg 78%
    04:00 +5°C° 0 mm 2 m/s 763 mmHg 79%
    05:00 +4°C° 0 mm 2 m/s 763 mmHg 80%
    06:00 +4°C° 0 mm 2 m/s 763 mmHg 81%
    07:00 +4°C° 0 mm 2 m/s 763 mmHg 81%
    08:00 +4°C° 0 mm 2 m/s 763 mmHg 82%
    09:00 +6°C° 0 mm 2 m/s 763 mmHg 77%
    10:00 +7°C° 0 mm 3 m/s 763 mmHg 72%
    11:00 +9°C° 0 mm 3 m/s 763 mmHg 67%
    12:00 +10°C° 0 mm 3 m/s 762 mmHg 66%
    13:00 +10°C° 0 mm 3 m/s 762 mmHg 64%
    14:00 +11°C° 0 mm 3 m/s 762 mmHg 63%
    15:00 +10°C° 0 mm 3 m/s 762 mmHg 67%
    16:00 +9°C° 0 mm 2 m/s 762 mmHg 71%
    17:00 +8°C° 0 mm 2 m/s 761 mmHg 75%
    18:00 +8°C° 0 mm 2 m/s 761 mmHg 76%
    19:00 +7°C° 0 mm 2 m/s 761 mmHg 76%
    20:00 +7°C° 0 mm 2 m/s 761 mmHg 77%
    21:00 +7°C° 0 mm 2 m/s 761 mmHg 77%
    22:00 +7°C° 0 mm 2 m/s 761 mmHg 78%
    23:00 +7°C° 0 mm 2 m/s 761 mmHg 79%

    14 Dezembro, Quinta-feira

    Tempo Temperatura Precipitação Vento Pressão Humidade
    00:00 +7°C° 0 mm 2 m/s 761 mmHg 80%
    01:00 +7°C° 0 mm 2 m/s 760 mmHg 81%
    02:00 +7°C° 0 mm 2 m/s 760 mmHg 82%
    03:00 +7°C° 0 mm 2 m/s 760 mmHg 82%
    04:00 +7°C° 0 mm 2 m/s 760 mmHg 83%
    05:00 +7°C° 0 mm 2 m/s 760 mmHg 83%
    06:00 +7°C° 0,2 mm 2 m/s 760 mmHg 84%
    07:00 +7°C° 0,2 mm 2 m/s 760 mmHg 85%
    08:00 +6°C° 0,2 mm 2 m/s 760 mmHg 86%
    09:00 +7°C° 0,5 mm 2 m/s 759 mmHg 87%
    10:00 +7°C° 0,5 mm 2 m/s 759 mmHg 88%
    11:00 +7°C° 0,5 mm 3 m/s 759 mmHg 88%
    12:00 +7°C° 0,2 mm 3 m/s 759 mmHg 87%
    13:00 +7°C° 0,2 mm 3 m/s 759 mmHg 86%
    14:00 +8°C° 0,2 mm 3 m/s 759 mmHg 85%
    15:00 +7°C° 0 mm 3 m/s 759 mmHg 86%
    16:00 +7°C° 0 mm 2 m/s 759 mmHg 88%
    17:00 +6°C° 0 mm 2 m/s 759 mmHg 89%
    18:00 +7°C° 0 mm 1 m/s 759 mmHg 89%
    19:00 +6°C° 0 mm 1 m/s 759 mmHg 90%
    20:00 +6°C° 0 mm 1 m/s 760 mmHg 90%
    21:00 +6°C° 0 mm 1 m/s 759 mmHg 90%
    22:00 +5°C° 0 mm 1 m/s 759 mmHg 90%
    23:00 +4°C° 0 mm 2 m/s 759 mmHg 90%

    15 Dezembro, Sexta-feira

    Tempo Temperatura Precipitação Vento Pressão Humidade
    00:00 +4°C° 0 mm 2 m/s 759 mmHg 90%
    01:00 +4°C° 0 mm 2 m/s 759 mmHg 90%
    02:00 +3°C° 0 mm 3 m/s 759 mmHg 90%
    03:00 +3°C° 0 mm 3 m/s 759 mmHg 90%
    04:00 +3°C° 0 mm 4 m/s 759 mmHg 89%
    05:00 +3°C° 0 mm 4 m/s 758 mmHg 89%
    06:00 +3°C° 0 mm 4 m/s 758 mmHg 86%
    07:00 +2°C° 0 mm 5 m/s 759 mmHg 84%
    08:00 +2°C° 0 mm 5 m/s 759 mmHg 81%
    09:00 +5°C° 0 mm 5 m/s 759 mmHg 75%
    10:00 +5°C° 0 mm 6 m/s 759 mmHg 68%
    11:00 +8°C° 0 mm 7 m/s 759 mmHg 62%
    12:00 +9°C° 0 mm 6 m/s 759 mmHg 61%
    13:00 +10°C° 0 mm 6 m/s 759 mmHg 59%
    14:00 +10°C° 0 mm 5 m/s 759 mmHg 58%
    15:00 +9°C° 0 mm 5 m/s 759 mmHg 62%
    16:00 +10°C° 0 mm 4 m/s 759 mmHg 67%
    17:00 +8°C° 0 mm 4 m/s 760 mmHg 72%
    18:00 +7°C° 0 mm 4 m/s 760 mmHg 74%
    19:00 +7°C° 0 mm 4 m/s 760 mmHg 76%
    20:00 +7°C° 0 mm 4 m/s 760 mmHg 79%
    21:00 +7°C° 0 mm 5 m/s 760 mmHg 82%
    22:00 +7°C° 0 mm 5 m/s 760 mmHg 85%
    23:00 +7°C° 0 mm 5 m/s 760 mmHg 88%

    16 Dezembro, Sábado

    Tempo Temperatura Precipitação Vento Pressão Humidade
    00:00 +7°C° 0 mm 6 m/s 759 mmHg 90%
    01:00 +7°C° 0 mm 6 m/s 759 mmHg 91%
    02:00 +8°C° 0 mm 6 m/s 759 mmHg 92%
    03:00 +8°C° 0 mm 7 m/s 758 mmHg 91%
    04:00 +8°C° 0 mm 7 m/s 758 mmHg 89%
    05:00 +8°C° 0 mm 7 m/s 758 mmHg 88%
    06:00 +8°C° 0 mm 7 m/s 758 mmHg 88%
    07:00 +8°C° 0 mm 7 m/s 758 mmHg 87%
    08:00 +8°C° 0 mm 7 m/s 758 mmHg 87%
    09:00 +9°C° 0 mm 7 m/s 758 mmHg 83%
    10:00 +10°C° 0 mm 8 m/s 758 mmHg 79%
    11:00 +11°C° 0 mm 8 m/s 758 mmHg 76%
    12:00 +11°C° 0 mm 8 m/s 757 mmHg 74%
    13:00 +12°C° 0 mm 8 m/s 757 mmHg 72%
    14:00 +12°C° 0 mm 8 m/s 756 mmHg 70%
    15:00 +11°C° 0 mm 7 m/s 756 mmHg 75%
    16:00 +11°C° 0 mm 7 m/s 756 mmHg 80%
    17:00 +10°C° 0 mm 6 m/s 756 mmHg 85%
    18:00 +10°C° 0 mm 6 m/s 756 mmHg 86%
    19:00 +9°C° 0 mm 7 m/s 755 mmHg 87%
    20:00 +9°C° 0 mm 7 m/s 755 mmHg 88%
    21:00 +9°C° 0 mm 7 m/s 755 mmHg 87%
    22:00 +10°C° 0 mm 7 m/s 755 mmHg 86%
    23:00 +10°C° 0 mm 8 m/s 755 mmHg 85%
    Mostrar mais